Participated 1 time
in 1903
Isidore Le Chartier, France
Tour de France 2026 starts from Edinburgh, Scotland in

Stats and Facts from
Tour de France.

2026   2025   2024   2023  2022  2021  2020  2019   2018  2017   2016   2015  2014  2013   2012   2011  2010   2009   2008   2007   2006   2005   2004   2003   2002   2001   2000   1999   1998   1997  1996   1995   1994   1993   1992  1991   1990   1989   1988   1987   1986   1985   1984   1983  1982  1981   1980   1979  1978  1977   1976  1975  1974  1973   1972   1971   1970  1969   1968   1967   1966   1965  1964  1963   1962   1961   1960   1959   1958   1957  1956   1955   1954   1953   1952  1951  1950  1949   1948  1947  1939   1938   1937   1936   1935   1934   1933  1932   1931   1930  1929   1928   1927   1926  1925  1924  1923   1922   1921   1920   1919  1914   1913   1912   1911   1910  1909   1908   1907   1906  1905  1904   1903 

Tourstats
Sitemap

After stage 21 - 2026:
 16451 starters.
  5513 different riders.
  689 teams.
  2419 stages.
  470 restdays.
  469752.50 km.
  5946 abandoned riders.

Click map for 1965 route.
Facts from Tour de France 1965 Additional info and images from 1965.
  |   Stages.  |   Stage winners.  |   Days in jerseys.  |   Teams.  |   All riders.  |   All riders by age.  |   All riders from.  |  

  |   Rookies.  |   Withdrawls.  |   Average speed.  |   GC.  |   Polka  |   Green  |   White  |   Summits. (In tour)  |   Miscellaneous.  |  

Stage 9 on June 30th. 1965
Pick a stage:  1a  1b  2  3  4  5a  5b  6  7  8  9  10  11  12  13  14  15  16  17  18  19  20  21  22  

After stage 9:    Felice Gimondi  
  DaxBagnères-de-Bigorre | Dist: 226.50km. | Winner: Julio Jiménez

Podium
1  Col de l'Aubisque Julio Jiménezafter131.50 km.

1  Col du Tourmalet Julio Jiménezafter198.00 km.


Average speed for all riders in stage:  31,831 km./hr.

1
 Julio Jiménez  Kas-Kaskol06h 49' 19"=33,202  km/h

2
 André Foucher  Pelforth-Sauvage-Lejeune06h 52' 07"+  00:02:48 =32,976  km/h

3
 Gianni Motta  Molteni-Ignis06h 52' 19"+  00:03:00 =32,960  km/h

4  André Zimmermann  Peugeot-BP-Michelin06h 52' 19"+  00:03:00 =32,960  km/h

5  Jean-Claude Lebaube  Ford France-Gitane06h 52' 19"+  00:03:00 =32,960  km/h

6  Felice Gimondi  Salvarani06h 53' 24"+  00:04:05 =32,874  km/h

7  Guido De Rosso  Molteni-Ignis06h 53' 24"+  00:04:05 =32,874  km/h

8  Esteban Martin  Ferrys06h 53' 25"+  00:04:06 =32,872  km/h

9  Raymond Poulidor  Mercier-BP-Hutchinson06h 53' 25"+  00:04:06 =32,872  km/h

10  Tom Simpson  Peugeot-BP-Michelin06h 53' 59"+  00:04:40 =32,827  km/h

11  Karl-Heinz Kunde  Wiel's-Groene Leeuw06h 53' 59"+  00:04:40 =32,827  km/h

12  José Pérez Francés  Ferrys06h 55' 34"+  00:06:15 =32,702  km/h

13  Raymond Delisle  Peugeot-BP-Michelin06h 55' 36"+  00:06:17 =32,700  km/h

14  Cees Haast  Televisier06h 55' 58"+  00:06:39 =32,671  km/h

15  Arnaldo Pambianco  Salvarani06h 56' 16"+  00:06:57 =32,647  km/h

16  Francisco Gabica  Kas-Kaskol06h 56' 17"+  00:06:58 =32,646  km/h

17  Rik Van Looy  Solo-Superia06h 57' 17"+  00:07:58 =32,568  km/h

18  Henri Anglade  Pelforth-Sauvage-Lejeune06h 57' 17"+  00:07:58 =32,568  km/h

19  Renzo Fontona  Molteni-Ignis06h 57' 17"+  00:07:58 =32,568  km/h

20  Valentin Uriona  Kas-Kaskol06h 57' 25"+  00:08:06 =32,557  km/h

21  Walter Boucquet  Flandria-Romeo06h 58' 22"+  00:09:03 =32,483  km/h

22  Jan Janssen  Pelforth-Sauvage-Lejeune06h 58' 22"+  00:09:03 =32,483  km/h

23  Roger Pingeon  Peugeot-BP-Michelin06h 59' 51"+  00:10:32 =32,369  km/h

24  Armand Desmet  Solo-Superia07h 00' 43"+  00:11:24 =32,302  km/h

25  Willy Bocklant  Flandria-Romeo07h 00' 46"+  00:11:27 =32,298  km/h

26  Frans Brands  Flandria-Romeo07h 00' 46"+  00:11:27 =32,298  km/h

27  Hans Junkermann  Margnat-Paloma07h 00' 46"+  00:11:27 =32,298  km/h

28  Louis Rostollan  Ford France-Gitane07h 00' 46"+  00:11:27 =32,298  km/h

29  Willy Monty  Pelforth-Sauvage-Lejeune07h 00' 46"+  00:11:27 =32,298  km/h

30  Giuseppe Fezzardi  Molteni-Ignis07h 00' 46"+  00:11:27 =32,298  km/h

31  Fernando Manzaneque  Ferrys07h 00' 46"+  00:11:27 =32,298  km/h

32  Georges Van Den Berghe  Flandria-Romeo07h 02' 22"+  00:13:03 =32,176  km/h

33  Gilberto Vendemiati  Salvarani07h 02' 22"+  00:13:03 =32,176  km/h

34  Henry Duez  Peugeot-BP-Michelin07h 02' 22"+  00:13:03 =32,176  km/h

35  Angelino Soler  Peugeot-BP-Michelin07h 02' 22"+  00:13:03 =32,176  km/h

36  Eduardo Castello  Ferrys07h 02' 22"+  00:13:03 =32,176  km/h

37  Benoni Beheyt  Wiel's-Groene Leeuw07h 03' 03"+  00:13:44 =32,124  km/h

38  Henri De Wolf  Solo-Superia07h 03' 03"+  00:13:44 =32,124  km/h

39  Sebastián Elorza  Kas-Kaskol07h 03' 03"+  00:13:44 =32,124  km/h

40  Adriano Durante  Molteni-Ignis07h 03' 03"+  00:13:44 =32,124  km/h

41  Roland Van De Rijse  Flandria-Romeo07h 03' 03"+  00:13:44 =32,124  km/h

42  Francis Blanc  Salvarani07h 03' 03"+  00:13:44 =32,124  km/h

43  Anatole Novak  Ford France-Gitane07h 03' 03"+  00:13:44 =32,124  km/h

44  Huub Harings  Televisier07h 03' 03"+  00:13:44 =32,124  km/h

45  José Momeñe  Kas-Kaskol07h 03' 03"+  00:13:44 =32,124  km/h

46  Raymond Mastrotto  Margnat-Paloma07h 03' 03"+  00:13:44 =32,124  km/h

47  Gilbert Desmet 1  Wiel's-Groene Leeuw07h 03' 03"+  00:13:44 =32,124  km/h

48  Michel Van Aerde  Solo-Superia07h 03' 03"+  00:13:44 =32,124  km/h

49  Luis Otaño  Ferrys07h 03' 03"+  00:13:44 =32,124  km/h

50  Eddy Pauwels  Wiel's-Groene Leeuw07h 04' 37"+  00:15:18 =32,005  km/h

51  Rogelio Hernandez  Ferrys07h 04' 37"+  00:15:18 =32,005  km/h

52  Eusebio Velez  Kas-Kaskol07h 04' 37"+  00:15:18 =32,005  km/h

53  Jean-Louis Bodin  Mercier-BP-Hutchinson07h 05' 10"+  00:15:51 =31,964  km/h

54  Michael Wright  Wiel's-Groene Leeuw07h 05' 10"+  00:15:51 =31,964  km/h

55  Rik Wouters  Televisier07h 05' 10"+  00:15:51 =31,964  km/h

56  René Binggeli  Molteni-Ignis07h 05' 10"+  00:15:51 =31,964  km/h

57  Désiré Letort  Peugeot-BP-Michelin07h 05' 10"+  00:15:51 =31,964  km/h

58  Ambrogio Portalupi  Molteni-Ignis07h 05' 10"+  00:15:51 =31,964  km/h

59  Ramon Mendiburu  Ferrys07h 05' 10"+  00:15:51 =31,964  km/h

69  François Mahé  Pelforth-Sauvage-Lejeune07h 05' 10"+  00:15:51 =31,964  km/h

60  Jean-Pierre Genet  Mercier-BP-Hutchinson07h 06' 29"+  00:17:10 =31,865  km/h

61  Henk Nijdam  Televisier07h 06' 29"+  00:17:10 =31,865  km/h

62  Gines Garcia  Margnat-Paloma07h 07' 54"+  00:18:35 =31,760  km/h

63  Johny Schleck  Pelforth-Sauvage-Lejeune07h 07' 54"+  00:18:35 =31,760  km/h

64  Guido Reybrouck  Flandria-Romeo07h 07' 54"+  00:18:35 =31,760  km/h

65  Raúl Rey  Ferrys07h 09' 05"+  00:19:46 =31,672  km/h

66  August Verhaegen  Wiel's-Groene Leeuw07h 09' 05"+  00:19:46 =31,672  km/h

67  Juan José Sagarduy  Kas-Kaskol07h 09' 46"+  00:20:27 =31,622  km/h

68  Jean Gainche  Mercier-BP-Hutchinson07h 09' 46"+  00:20:27 =31,622  km/h

70  Francois Le Her  Margnat-Paloma07h 09' 46"+  00:20:27 =31,622  km/h

71  Frans Aerenhouts  Mercier-BP-Hutchinson07h 09' 46"+  00:20:27 =31,622  km/h

72  Roger Swerts  Mercier-BP-Hutchinson07h 09' 46"+  00:20:27 =31,622  km/h

73  Gilbert Bellone  Margnat-Paloma07h 09' 46"+  00:20:27 =31,622  km/h

74  Remo Stefanoni  Molteni-Ignis07h 09' 46"+  00:20:27 =31,622  km/h

75  Robert Cazala  Mercier-BP-Hutchinson07h 09' 46"+  00:20:27 =31,622  km/h

76  Carlos Echeverría  Kas-Kaskol07h 09' 46"+  00:20:27 =31,622  km/h

77  Edgard Sorgeloos  Solo-Superia07h 09' 46"+  00:20:27 =31,622  km/h

78  Joaquin Galera  Kas-Kaskol07h 09' 46"+  00:20:27 =31,622  km/h

79  Noël De Pauw  Solo-Superia07h 11' 54"+  00:22:35 =31,466  km/h

80  Gilbert Desmet 2  Wiel's-Groene Leeuw07h 11' 54"+  00:22:35 =31,466  km/h

81  Jozef Timmerman  Wiel's-Groene Leeuw07h 11' 54"+  00:22:35 =31,466  km/h

82  Giacomo Fornoni  Molteni-Ignis07h 11' 54"+  00:22:35 =31,466  km/h

83  Yvo Molenaers  Flandria-Romeo07h 11' 54"+  00:22:35 =31,466  km/h

84  André Darrigade  Margnat-Paloma07h 13' 23"+  00:24:04 =31,358  km/h

85  Jean Milesi  Margnat-Paloma07h 13' 23"+  00:24:04 =31,358  km/h

86  Joseph Groussard  Pelforth-Sauvage-Lejeune07h 13' 23"+  00:24:04 =31,358  km/h

87  Ferdinand Bracke  Peugeot-BP-Michelin07h 13' 23"+  00:24:04 =31,358  km/h

88  Jacques Bachelot  Margnat-Paloma07h 13' 23"+  00:24:04 =31,358  km/h

89  Jo de Haan  Televisier07h 13' 23"+  00:24:04 =31,358  km/h

90  Willy Planckaert  Solo-Superia07h 13' 23"+  00:24:04 =31,358  km/h

91  Roland Zöffel  Salvarani07h 14' 14"+  00:24:55 =31,297  km/h

92  Jean-Claude Lefebvre  Pelforth-Sauvage-Lejeune07h 14' 14"+  00:24:55 =31,297  km/h

93  Marino Minieri  Salvarani07h 14' 14"+  00:24:55 =31,297  km/h

94  Victor Van Schil  Mercier-BP-Hutchinson07h 14' 14"+  00:24:55 =31,297  km/h

95  Guillaume Van Tongerloo  Flandria-Romeo07h 14' 14"+  00:24:55 =31,297  km/h

96  Pietro Partesotti  Salvarani07h 14' 14"+  00:24:55 =31,297  km/h

97  Diego Ronchini  Salvarani07h 14' 14"+  00:24:55 =31,297  km/h

98  Italo Mazzacurati  Salvarani07h 14' 14"+  00:24:55 =31,297  km/h

99  Gerben Karstens  Televisier07h 14' 14"+  00:24:55 =31,297  km/h

100  Rolf Wolfshohl  Mercier-BP-Hutchinson07h 14' 14"+  00:24:55 =31,297  km/h

101  Antonio Bertran  Ferrys07h 14' 14"+  00:24:55 =31,297  km/h

102  Jo De Roo  Televisier07h 16' 22"+  00:27:03 =31,144  km/h

103  Hubert Ferrer  Pelforth-Sauvage-Lejeune07h 16' 22"+  00:27:03 =31,144  km/h

104  Edward Sels  Solo-Superia07h 16' 22"+  00:27:03 =31,144  km/h

105  Bas Maliepaard  Televisier07h 17' 56"+  00:28:37 =31,032  km/h

106  Julien Haelterman  Flandria-Romeo07h 18' 19"+  00:29:00 =31,005  km/h

107  Ambrogio Colombo  Molteni-Ignis07h 18' 19"+  00:29:00 =31,005  km/h

108  Cees van Espen  Televisier07h 19' 47"+  00:30:28 =30,902  km/h

109  Leo van Dongen  Televisier07h 19' 47"+  00:30:28 =30,902  km/h

110  Georges Chappe  Mercier-BP-Hutchinson07h 20' 55"+  00:31:36 =30,822  km/h

111  Vic Denson  Ford France-Gitane07h 23' 19"+  00:34:00 =30,655  km/h

112  Albertus Geldermans  Margnat-Paloma07h 23' 19"+  00:34:00 =30,655  km/h

113  Cees Lute  Ford France-Gitane07h 23' 51"+  00:34:32 =30,618  km/h

114  Michel Grain  Ford France-Gitane07h 23' 51"+  00:34:32 =30,618  km/h

115  Pierre Everaert  Ford France-Gitane07h 27' 06"+  00:37:47 =30,396  km/h

116  Federico Bahamontes  Margnat-Paloma07h 27' 07"+  00:37:48 =30,395  km/h

117  Georges Van Coningsloo  Peugeot-BP-Michelin07h 28' 35"+  00:39:16 =30,295  km/h


Withdrawls: 11
 RiderTeamReason
1   Lucien Aimar Ford France-GitaneDid not finish
2   Arie den Hartog Ford France-GitaneDid not finish
8   Pierre Martin Ford France-GitaneDid not finish
56   Peter Post Flandria-RomeoDid not finish
67   Julien Stevens Solo-SuperiaDid not finish
69   Bernard Van De Kerckhove Solo-SuperiaDid not finish
74   Gustaaf De Smet Wiel's-Groene LeeuwDid not finish
77   Dieter Puschel Wiel's-Groene LeeuwDid not finish
100   Juan Garcia Such FerrysDid not finish
105   Antonio Gomez del Moral Kas-KaskolDid not finish
121   Vittorio Adorni SalvaraniDid not finish
Todays birthdays.

1896 • Andre Coutte
1907 • Eduardo Molinar
1911 • Gabriel Dubois
1932 • Serge David
1936 • Alberto Assirelli
1947 • Roberto Sorlini
1951 • Valerio Lualdi
1952 • Paulino Martinez
1955 • Erich Jagsch
1969 • Ermanno Brignoli
1971 • Fabrice Gougot
1975 • Steve De Wolf
1984 • Matti Breschel
1990 • Maurits Lammertink
1996 • Fabio Jakobsen
2002 • Ramses Debruyne

 

Optimized for Chrome - Edge
and Opera browsers.